{"data":{"norad_id":44340,"epoch":"2026-05-24T21:42:00.544608Z","epoch_age_seconds":73360,"freshness":"FRESH","line1":"1 44340U 19036B   26144.90417297  .00004856  00000+0  68067-3 0  9992","line2":"2 44340  24.0004   9.3698 0007609 308.3006  51.6806 14.74326798369054","mean_motion":14.74326798,"eccentricity":0.0007609,"inclination_deg":24.0004,"raan_deg":9.3698,"arg_perigee_deg":308.3006,"mean_anomaly_deg":51.6806,"bstar":0.00068067,"rev_number":36905,"period_min":97.671696801105,"perigee_km":641.9434286543,"apogee_km":652.63472205578,"semimajor_km":7025.426075355,"source":"CELESTRAK","updated_at":"2026-05-25T13:37:55.968820Z"}}